When you browse on this site, cookies collect data to enhance your experience and personalize the content and advertising you see.
Visit our Privacy Policy to learn more. By continuing to use the site, you agree to this use of cookies and data.
  • In Österreich
  • Länderverzeichnis
  • Für 7 Tage
  • Wassertemperatur
  • Wetterkarte
  • News
  • Widgets
  • user-avatar
    Anmelden

    Stündliche Wetter Katowice

    Heute, 5 April, Sonntag

    Zeit Temperatur Niederschläge Wind Luftdruck Luftfeuchtigkeit
    00:00 +4°C° 0 mm 2 m/S 746 mmHg 65%
    01:00 +4°C° 0 mm 2 m/S 747 mmHg 65%
    02:00 +4°C° 0 mm 2 m/S 747 mmHg 67%
    03:00 +3°C° 0 mm 2 m/S 747 mmHg 69%
    04:00 +3°C° 0 mm 2 m/S 747 mmHg 70%
    05:00 +4°C° 0 mm 2 m/S 747 mmHg 68%
    06:00 +3°C° 0 mm 3 m/S 747 mmHg 65%
    07:00 +4°C° 0 mm 3 m/S 748 mmHg 61%
    08:00 +5°C° 0 mm 4 m/S 748 mmHg 56%
    09:00 +7°C° 0 mm 4 m/S 748 mmHg 51%
    10:00 +8°C° 0 mm 4 m/S 748 mmHg 47%
    11:00 +9°C° 0 mm 5 m/S 748 mmHg 44%
    12:00 +10°C° 0 mm 5 m/S 748 mmHg 42%
    13:00 +12°C° 0 mm 5 m/S 748 mmHg 40%
    14:00 +12°C° 0 mm 5 m/S 748 mmHg 40%
    15:00 +12°C° 0 mm 5 m/S 747 mmHg 41%
    16:00 +12°C° 0 mm 5 m/S 747 mmHg 41%
    17:00 +10°C° 0 mm 5 m/S 747 mmHg 45%
    18:00 +9°C° 0 mm 5 m/S 747 mmHg 49%
    19:00 +7°C° 0 mm 4 m/S 747 mmHg 53%
    20:00 +7°C° 0 mm 5 m/S 747 mmHg 54%
    21:00 +7°C° 0 mm 5 m/S 748 mmHg 55%
    22:00 +6°C° 0 mm 5 m/S 748 mmHg 55%
    23:00 +6°C° 0 mm 5 m/S 748 mmHg 57%

    Morgen, 6 April, Montag

    Zeit Temperatur Niederschläge Wind Luftdruck Luftfeuchtigkeit
    00:00 +5°C° 0 mm 4 m/S 748 mmHg 58%
    01:00 +5°C° 0 mm 4 m/S 747 mmHg 60%
    02:00 +4°C° 0 mm 3 m/S 747 mmHg 63%
    03:00 +3°C° 0 mm 3 m/S 747 mmHg 65%
    04:00 +4°C° 0 mm 2 m/S 747 mmHg 68%
    05:00 +4°C° 0 mm 2 m/S 747 mmHg 67%
    06:00 +5°C° 0 mm 2 m/S 747 mmHg 65%
    07:00 +6°C° 0 mm 2 m/S 747 mmHg 63%
    08:00 +8°C° 0 mm 2 m/S 747 mmHg 55%
    09:00 +12°C° 0 mm 2 m/S 748 mmHg 48%
    10:00 +15°C° 0 mm 2 m/S 748 mmHg 40%
    11:00 +16°C° 0 mm 2 m/S 748 mmHg 38%
    12:00 +17°C° 0 mm 3 m/S 748 mmHg 35%
    13:00 +18°C° 0 mm 3 m/S 747 mmHg 33%
    14:00 +18°C° 0 mm 3 m/S 747 mmHg 34%
    15:00 +18°C° 0 mm 3 m/S 747 mmHg 34%
    16:00 +18°C° 0 mm 3 m/S 747 mmHg 35%
    17:00 +16°C° 0 mm 3 m/S 747 mmHg 40%
    18:00 +14°C° 0 mm 2 m/S 747 mmHg 45%
    19:00 +13°C° 0 mm 2 m/S 747 mmHg 50%
    20:00 +12°C° 0 mm 2 m/S 748 mmHg 52%
    21:00 +10°C° 0 mm 2 m/S 748 mmHg 54%
    22:00 +9°C° 0 mm 2 m/S 748 mmHg 57%
    23:00 +8°C° 0 mm 2 m/S 748 mmHg 58%

    übermorgen, 7 April, Dienstag

    Zeit Temperatur Niederschläge Wind Luftdruck Luftfeuchtigkeit
    00:00 +8°C° 0 mm 2 m/S 748 mmHg 59%
    01:00 +7°C° 0 mm 2 m/S 748 mmHg 61%
    02:00 +7°C° 0 mm 2 m/S 748 mmHg 61%
    03:00 +7°C° 0 mm 2 m/S 748 mmHg 61%
    04:00 +6°C° 0 mm 2 m/S 749 mmHg 62%
    05:00 +7°C° 0 mm 2 m/S 749 mmHg 59%
    06:00 +8°C° 0 mm 2 m/S 749 mmHg 56%
    07:00 +9°C° 0 mm 3 m/S 749 mmHg 53%
    08:00 +10°C° 0 mm 3 m/S 749 mmHg 47%
    09:00 +12°C° 0 mm 4 m/S 749 mmHg 42%
    10:00 +13°C° 0 mm 4 m/S 749 mmHg 36%
    11:00 +14°C° 0 mm 4 m/S 749 mmHg 34%
    12:00 +15°C° 0 mm 5 m/S 749 mmHg 31%
    13:00 +16°C° 0 mm 5 m/S 749 mmHg 29%
    14:00 +17°C° 0 mm 4 m/S 749 mmHg 28%
    15:00 +17°C° 0 mm 4 m/S 748 mmHg 28%
    16:00 +17°C° 0 mm 4 m/S 748 mmHg 27%
    17:00 +14°C° 0 mm 3 m/S 748 mmHg 32%
    18:00 +13°C° 0 mm 3 m/S 748 mmHg 36%
    19:00 +12°C° 0 mm 2 m/S 748 mmHg 40%
    20:00 +10°C° 0 mm 2 m/S 748 mmHg 43%
    21:00 +9°C° 0 mm 2 m/S 748 mmHg 45%
    22:00 +9°C° 0 mm 2 m/S 748 mmHg 48%
    23:00 +8°C° 0 mm 2 m/S 748 mmHg 50%

    8 April, Mittwoch

    Zeit Temperatur Niederschläge Wind Luftdruck Luftfeuchtigkeit
    00:00 +8°C° 0 mm 2 m/S 748 mmHg 53%
    01:00 +7°C° 0 mm 2 m/S 748 mmHg 55%
    02:00 +8°C° 0 mm 1 m/S 748 mmHg 55%
    03:00 +7°C° 0 mm 1 m/S 748 mmHg 56%
    04:00 +7°C° 0 mm 1 m/S 748 mmHg 56%
    05:00 +8°C° 0 mm 1 m/S 748 mmHg 54%
    06:00 +9°C° 0 mm 1 m/S 748 mmHg 51%
    07:00 +9°C° 0 mm 1 m/S 748 mmHg 48%
    08:00 +12°C° 0 mm 1 m/S 748 mmHg 43%
    09:00 +14°C° 0 mm 1 m/S 747 mmHg 37%
    10:00 +16°C° 0 mm 1 m/S 747 mmHg 31%
    11:00 +18°C° 0 mm 1 m/S 747 mmHg 28%
    12:00 +19°C° 0 mm 1 m/S 747 mmHg 25%
    13:00 +20°C° 0 mm 1 m/S 746 mmHg 23%
    14:00 +20°C° 0 mm 1 m/S 746 mmHg 22%
    15:00 +20°C° 0 mm 1 m/S 745 mmHg 22%
    16:00 +18°C° 0 mm 0 m/S 745 mmHg 21%
    17:00 +16°C° 0 mm 0 m/S 745 mmHg 24%
    18:00 +15°C° 0 mm 0 m/S 744 mmHg 28%
    19:00 +13°C° 0 mm 0 m/S 744 mmHg 31%
    20:00 +13°C° 0 mm 1 m/S 744 mmHg 34%
    21:00 +13°C° 0 mm 1 m/S 744 mmHg 38%
    22:00 +12°C° 0 mm 1 m/S 744 mmHg 41%
    23:00 +11°C° 0 mm 1 m/S 744 mmHg 45%

    9 April, Donnerstag

    Zeit Temperatur Niederschläge Wind Luftdruck Luftfeuchtigkeit
    00:00 +11°C° 0 mm 1 m/S 743 mmHg 49%
    01:00 +10°C° 0 mm 1 m/S 743 mmHg 52%
    02:00 +10°C° 0 mm 1 m/S 743 mmHg 55%
    03:00 +9°C° 0 mm 1 m/S 743 mmHg 58%
    04:00 +9°C° 0 mm 1 m/S 743 mmHg 61%
    05:00 +10°C° 0 mm 1 m/S 742 mmHg 60%
    06:00 +10°C° 0 mm 1 m/S 742 mmHg 58%
    07:00 +11°C° 0 mm 1 m/S 742 mmHg 56%
    08:00 +13°C° 0 mm 2 m/S 742 mmHg 50%
    09:00 +15°C° 0 mm 2 m/S 742 mmHg 44%
    10:00 +17°C° 0 mm 3 m/S 742 mmHg 38%
    11:00 +18°C° 0 mm 3 m/S 742 mmHg 35%
    12:00 +19°C° 0 mm 3 m/S 741 mmHg 33%
    13:00 +19°C° 0 mm 3 m/S 741 mmHg 30%
    14:00 +19°C° 0 mm 4 m/S 741 mmHg 32%
    15:00 +19°C° 0 mm 4 m/S 740 mmHg 33%
    16:00 +19°C° 0 mm 4 m/S 740 mmHg 34%
    17:00 +18°C° 0 mm 3 m/S 740 mmHg 40%
    18:00 +16°C° 0 mm 3 m/S 740 mmHg 45%
    19:00 +14°C° 0 mm 2 m/S 740 mmHg 51%
    20:00 +14°C° 0 mm 2 m/S 740 mmHg 53%
    21:00 +13°C° 0 mm 2 m/S 740 mmHg 55%
    22:00 +12°C° 0 mm 2 m/S 740 mmHg 57%
    23:00 +10°C° 0 mm 2 m/S 740 mmHg 60%

    10 April, Freitag

    Zeit Temperatur Niederschläge Wind Luftdruck Luftfeuchtigkeit
    00:00 +10°C° 0 mm 2 m/S 741 mmHg 64%
    01:00 +9°C° 0 mm 2 m/S 741 mmHg 67%
    02:00 +9°C° 0 mm 2 m/S 741 mmHg 71%
    03:00 +9°C° 0 mm 2 m/S 741 mmHg 75%
    04:00 +9°C° 0 mm 2 m/S 741 mmHg 78%
    05:00 +9°C° 0 mm 2 m/S 742 mmHg 76%
    06:00 +9°C° 0 mm 2 m/S 742 mmHg 75%
    07:00 +9°C° 0 mm 2 m/S 742 mmHg 73%
    08:00 +12°C° 0 mm 2 m/S 742 mmHg 67%
    09:00 +12°C° 0 mm 3 m/S 742 mmHg 61%
    10:00 +13°C° 0 mm 3 m/S 743 mmHg 55%
    11:00 +13°C° 0 mm 3 m/S 743 mmHg 52%
    12:00 +14°C° 0 mm 3 m/S 742 mmHg 49%
    13:00 +14°C° 0 mm 3 m/S 742 mmHg 46%
    14:00 +14°C° 0 mm 3 m/S 742 mmHg 44%
    15:00 +14°C° 0 mm 3 m/S 742 mmHg 41%
    16:00 +14°C° 0 mm 3 m/S 742 mmHg 39%
    17:00 +14°C° 0 mm 2 m/S 742 mmHg 42%
    18:00 +13°C° 0 mm 2 m/S 742 mmHg 44%
    19:00 +12°C° 0 mm 2 m/S 742 mmHg 46%
    20:00 +11°C° 0 mm 1 m/S 742 mmHg 47%
    21:00 +10°C° 0 mm 1 m/S 742 mmHg 48%
    22:00 +8°C° 0 mm 0 m/S 742 mmHg 49%
    23:00 +8°C° 0 mm 0 m/S 742 mmHg 51%
    Mehr zeigen